User: anonymous   Login
Location: Unspecified
(0.0000°N, 0.0000°E)
Time: 02:06:21
(UTC+00:00)
Language:

CP3 - Orbit

View from above orbital plane
View from above orbital plane
View from above satellite
View from above satellite

Ground track
Ground track

The orbit data is extracted from the following two-line orbital elements,

1 31129U 07012N   18170.37055944 +.00000110 +00000-0 +33404-4 0  9990
2 31129 098.1230 114.9187 0096308 134.5731 226.3380 14.56678735592925
Epoch (UTC): 19 June 2018 08:53:36
Eccentricity: 0.0096308
inclination: 98.1230°
perigee height: 636 km
apogee height: 772 km
right ascension of ascending node: 114.9187°
argument of perigee: 134.5731°
revolutions per day: 14.56678735
mean anomaly at epoch: 226.3380°
orbit number at epoch: 59292

The dashed part of the orbit path shows where the satellite is in the earth's shadow,  

DLR